STARLINK-11514, 62514

Orbit data source: Space-Track

STARLINK-11514, 62514 is a payload satellite owned by SpaceX/Seattle (US) in LEO that was launched on Wed, 08 Jan 2025 UTC via an FALCON 9 launch vehicle from the Air Force Eastern Test Range (AFETR). Payload-class satellites include a variety of spacecraft equipped with specific instruments for various scientific and technological missions. These include communications satellites like Starlink; space stations such as the ISS; scientific satellites like the Hubble; Earth observation satellites from companies like Planet Labs, Umbra, and HawkEye 360; GPS; miniature CubeSats for education and research; and military/defense satellites.

Loading next visibility...
Identifier
62514, 2025-004D
Orbit
LEO
Country
Flag of USUS
Related business
Manufacturer
SpaceX/Seattle
Mission
Operational Commercial Communications
Bus & Motor
STARLINK V2MD, Unknown motor
Mass
960 kg wet, ~910 kg dry
Launch date (UTC)
2025-01-08 (1 year ago)
Launch vehicle
FALCON 9
Launch site
Air Force Eastern Test Range (AFETR)
Object type
Payload
Rocket body
Debris
Shape & HBR
Box + 2 Pan, 18.1 m
Radar Cross Section
36.964 m², Large (>1 m²)

Expand to show TLE details & history
Last TLE update: 14 hours ago

TLE from 14 hours ago
0 STARLINK-11514
1 62514U 25004D   26037.75090292  .00339873  00000-0  25247-2 0  9996
2 62514  42.9987 257.1282 0003017 226.2762 133.7856 15.71033707 62346
Epoch: 2026-02-06T18:01Z
TLE epoch observation values (Epoch: 2026-02-06T18:01:18.012Z)
Latitude
-0.00002°
Longitude
-150.08116°
Altitude
357.118 km
Speed
7.696 km/s
True Right ascension
17h 08m 30s
True Declination
0° 00' 00"
Sunlit
Object was in daylight at epoch
Visualization orbit readout
Latitude
Unknown
Longitude
Unknown
Altitude
Unknown
Speed
Unknown
Apparent Right ascension
Unknown
Apparent Declination
Unknown
Sunlit
N/A
Visualization observer readout
Local Sidereal Time
09:46:24
Azimuth
Unknown
Elevation
Unknown
Doppler factor
Unknown
Orbital elements
Apogee altitude
359.956 km
Perigee altitude
355.891 km
Semi-major axis
6,736.06 km
Eccentricity
0.0003
Inclination
42.9987°
RAAN
257.1282°
Arg. of periapsis
226.2762°
True anomaly
133.81055°
Mean anomaly
133.7856°
Eccentric anomaly
133.79808°
Mean motion
3.92585 °/min
Orbital period
91.7 mins
BSTAR
0.0025247
Loading maneuver chart data...
Computing Atmospheric mass density...
Loading historical data...
Loading historical data...
Loading historical data...
Loading historical data...
Loading historical data...
Loading historical data...
Loading historical data...

Documentation

Showing up to 5 results
|